Menomonie, WI

11:48 AM CDT on April 29, 2017 (GMT -0500)
Menomonie

Weather History for KLUM - December, 2013

Change the Weather History Date:

Thursday, December 5, 2013

  Actual Average (KEAU) Record (KEAU)
Temperature  
Mean Temperature 12 °F -  
Max Temperature 22 °F 31 °F 64 °F (2001)
Min Temperature 2 °F 13 °F -14 °F (1955)
Degree Days  
Heating Degree Days 53    
Moisture  
Dew Point 3 °F    
Average Humidity 74    
Maximum Humidity 86    
Minimum Humidity 66    
Precipitation  
Precipitation 0.00 in - - ()
Sea Level Pressure  
Sea Level Pressure 29.98 in    
Wind  
Wind Speed 17 mph (WSW)    
Max Wind Speed 22 mph    
Max Gust Speed 30 mph    
Visibility 9 miles    
Events Snow    
Averages and records for this station are not official NWS values.
T = Trace of Precipitation, MM = Missing Value Source: NWS Daily Summary

Daily Weather History Graph

Daily Weather History Graph

Search for Another Location

Airport or City:

Trip Planner

Search our weather history database for the weather conditions in past years. The results will help you decide how hot, cold, wet, or windy it might be!

Date:

Astronomy

Dec. 05, 2013 Rise Set
Actual Time 7:29 AM CST 4:26 PM CST
Civil Twilight 6:56 AM CST 4:59 PM CST
Nautical Twilight 6:19 AM CST 5:36 PM CST
Astronomical Twilight 5:44 AM CST 6:12 PM CST
Moon 9:46 AM CST (12/5) 7:52 PM CST (12/5)
Length of Visible Light 10h 03m
Length of Day
8h 56m
Waxing Crescent, 11% of the Moon is Illuminated
Dec 5
Waxing Crescent
Dec 9
First Quarter
Dec 17
Full
Dec 25
Last Quarter
Jan 1
New

Hourly Weather History & Observations

Time (CST) Temp. Windchill Dew Point Humidity Pressure Visibility Wind Dir Wind Speed Gust Speed Precip Events Conditions
12:15 AM 22.5 °F 7.2 °F 18.9 °F 86% 29.62 in 10.0 mi WSW 20.7 mph 28.8 mph N/A   Overcast
12:35 AM 21.7 °F 6.3 °F 18.0 °F 85% 29.64 in 10.0 mi WSW 20.7 mph 27.6 mph N/A   Overcast
12:55 AM 20.5 °F 4.3 °F 16.3 °F 84% 29.65 in 10.0 mi SW 21.9 mph 28.8 mph N/A   Overcast
1:15 AM 19.8 °F 3.3 °F 15.1 °F 82% 29.65 in 10.0 mi SW 21.9 mph 27.6 mph N/A Snow Light Snow
1:35 AM 18.3 °F 1.8 °F 13.3 °F 81% 29.67 in 10.0 mi WSW 20.7 mph 29.9 mph N/A Snow Light Snow
1:55 AM 17.4 °F 1.9 °F 12.6 °F 81% 29.68 in 7.0 mi SW 17.3 mph 25.3 mph N/A Snow Light Snow
2:15 AM 16.0 °F -0.4 °F 11.5 °F 82% 29.68 in 5.0 mi SW 18.4 mph 26.5 mph N/A Snow Light Snow
2:35 AM 14.9 °F -1.8 °F 10.0 °F 81% 29.70 in 7.0 mi WSW 18.4 mph 28.8 mph N/A Snow Light Snow
2:55 AM 14.4 °F -3.0 °F 9.1 °F 80% 29.74 in 5.0 mi WSW 19.6 mph 26.5 mph N/A Snow Light Snow
3:15 AM 13.8 °F -2.7 °F 8.6 °F 80% 29.74 in 5.0 mi WSW 17.3 mph 25.3 mph N/A Snow Light Snow
3:35 AM 13.1 °F -1.4 °F 8.1 °F 80% 29.75 in 5.0 mi WSW 12.7 mph 18.4 mph N/A Snow Light Snow
3:55 AM 12.2 °F -6.3 °F 7.0 °F 80% 29.76 in 7.0 mi WSW 20.7 mph 27.6 mph N/A Snow Light Snow
4:15 AM 11.8 °F -6.7 °F 6.4 °F 79% 29.77 in 7.0 mi WSW 20.7 mph 27.6 mph N/A   Overcast
4:35 AM 11.3 °F -7.4 °F 5.7 °F 78% 29.79 in 10.0 mi WSW 20.7 mph 25.3 mph N/A   Overcast
4:55 AM 10.8 °F -7.2 °F 5.0 °F 78% 29.82 in 10.0 mi WSW 18.4 mph 25.3 mph N/A   Overcast
5:15 AM 10.2 °F -6.3 °F 4.5 °F 78% 29.82 in 7.0 mi WSW 15.0 mph - N/A   Overcast
5:35 AM 9.7 °F -9.1 °F 4.1 °F 78% 29.83 in 7.0 mi WSW 19.6 mph 27.6 mph N/A   Overcast
5:55 AM 9.1 °F -8.8 °F 3.6 °F 78% 29.85 in 10.0 mi WSW 17.3 mph 25.3 mph N/A   Mostly Cloudy
6:15 AM 9.0 °F -9.5 °F 3.2 °F 77% 29.85 in 7.0 mi WSW 18.4 mph 24.2 mph N/A   Mostly Cloudy
6:35 AM 8.6 °F -10.0 °F 3.0 °F 78% 29.87 in 10.0 mi WSW 18.4 mph 21.9 mph N/A   Mostly Cloudy
6:55 AM 8.6 °F -8.9 °F 2.7 °F 77% 29.88 in 10.0 mi WSW 16.1 mph 24.2 mph N/A   Scattered Clouds
7:15 AM 8.2 °F -8.8 °F 2.3 °F 77% 29.89 in 10.0 mi WSW 15.0 mph 19.6 mph N/A   Clear
7:35 AM 8.1 °F -9.0 °F 2.1 °F 77% 29.90 in 10.0 mi WSW 15.0 mph 21.9 mph N/A   Clear
7:55 AM 8.1 °F -9.6 °F 2.1 °F 77% 29.91 in 10.0 mi WSW 16.1 mph 23.0 mph N/A   Clear
8:15 AM 8.2 °F -8.8 °F 2.1 °F 76% 29.93 in 10.0 mi SW 15.0 mph 23.0 mph N/A   Scattered Clouds
8:35 AM 8.4 °F -7.3 °F 2.1 °F 76% 29.94 in 5.0 mi WSW 12.7 mph 21.9 mph N/A   Haze
8:55 AM 9.0 °F -7.3 °F 2.5 °F 75% 29.96 in 10.0 mi WSW 13.8 mph 21.9 mph N/A   Mostly Cloudy
9:15 AM 9.3 °F -8.6 °F 2.1 °F 73% 29.97 in 10.0 mi WSW 17.3 mph 23.0 mph N/A   Overcast
9:35 AM 9.5 °F -7.8 °F 2.1 °F 72% 29.98 in 10.0 mi WSW 16.1 mph 19.6 mph N/A   Mostly Cloudy
9:55 AM 9.5 °F -7.2 °F 2.1 °F 72% 29.99 in 5.0 mi WSW 15.0 mph 23.0 mph N/A   Haze
10:15 AM 10.0 °F -7.1 °F 2.3 °F 71% 30.01 in 7.0 mi WSW 16.1 mph 25.3 mph N/A   Mostly Cloudy
10:35 AM 10.2 °F -7.4 °F 2.5 °F 71% 30.01 in 7.0 mi WSW 17.3 mph 24.2 mph N/A   Mostly Cloudy
10:55 AM 10.2 °F -7.4 °F 2.3 °F 70% 30.01 in 10.0 mi WSW 17.3 mph 24.2 mph N/A   Mostly Cloudy
11:15 AM 10.4 °F -6.0 °F 1.9 °F 69% 30.02 in 10.0 mi WSW 15.0 mph 20.7 mph N/A   Mostly Cloudy
11:35 AM 10.4 °F -7.7 °F 1.9 °F 69% 30.02 in 10.0 mi WSW 18.4 mph 26.5 mph N/A   Mostly Cloudy
11:55 AM 11.1 °F -5.1 °F 2.5 °F 68% 30.03 in 10.0 mi WSW 15.0 mph 20.7 mph N/A   Scattered Clouds
12:15 PM 11.3 °F -2.9 °F 2.5 °F 68% 30.03 in 10.0 mi WSW 11.5 mph 19.6 mph N/A   Scattered Clouds
12:35 PM 11.3 °F -5.5 °F 2.3 °F 67% 30.03 in 10.0 mi WSW 16.1 mph 21.9 mph N/A   Scattered Clouds
12:55 PM 11.7 °F -4.4 °F 2.3 °F 66% 30.04 in 10.0 mi WSW 15.0 mph 21.9 mph N/A   Clear
1:15 PM 11.7 °F -3.2 °F 2.5 °F 67% 30.05 in 10.0 mi West 12.7 mph 23.0 mph N/A   Scattered Clouds
1:35 PM 12.0 °F -5.6 °F 2.7 °F 66% 30.05 in 10.0 mi West 18.4 mph 21.9 mph N/A   Scattered Clouds
1:55 PM 11.7 °F -5.0 °F 2.5 °F 67% 30.05 in 10.0 mi WSW 16.1 mph 21.9 mph N/A   Scattered Clouds
2:15 PM 11.5 °F -5.8 °F 2.8 °F 68% 30.05 in 10.0 mi WSW 17.3 mph 23.0 mph N/A   Scattered Clouds
2:35 PM 11.7 °F -4.4 °F 3.0 °F 68% 30.05 in 10.0 mi West 15.0 mph 21.9 mph N/A   Scattered Clouds
2:55 PM 10.9 °F -4.7 °F 1.8 °F 67% 30.06 in 10.0 mi WSW 13.8 mph 23.0 mph N/A   Clear
3:15 PM 10.9 °F -5.4 °F 2.1 °F 68% 30.06 in 10.0 mi WSW 15.0 mph 20.7 mph N/A   Clear
3:35 PM 10.4 °F -4.8 °F 1.4 °F 67% 30.07 in 10.0 mi West 12.7 mph - N/A   Clear
3:55 PM 10.0 °F -3.7 °F 1.4 °F 68% 30.08 in 10.0 mi WSW 10.4 mph 18.4 mph N/A   Scattered Clouds
4:15 PM 9.3 °F -4.6 °F 0.9 °F 69% 30.09 in 10.0 mi WSW 10.4 mph 17.3 mph N/A   Scattered Clouds
4:35 PM 9.0 °F -5.1 °F 0.5 °F 69% 30.11 in 10.0 mi WSW 10.4 mph - N/A   Scattered Clouds
4:55 PM 8.4 °F -6.5 °F 1.2 °F 73% 30.11 in 10.0 mi WSW 11.5 mph - N/A   Scattered Clouds
5:15 PM 8.1 °F -7.0 °F 0.5 °F 71% 30.12 in 10.0 mi WSW 11.5 mph - N/A   Scattered Clouds
5:35 PM 7.7 °F -6.6 °F 0.9 °F 74% - 10.0 mi SW 10.4 mph - N/A   Clear
5:55 PM - - - N/A% - - North - - N/A   Unknown
6:15 PM - - - N/A% - - North - - N/A   Unknown
6:35 PM - - - N/A% - - North - - N/A   Unknown
6:55 PM - - - N/A% - - North - - N/A   Unknown
7:15 PM - - - N/A% - - North - - N/A   Unknown
7:35 PM 5.9 °F -8.9 °F -0.4 °F 75% 30.21 in 10.0 mi WSW 10.4 mph - N/A   Unknown
7:55 PM 5.5 °F -10.2 °F -0.6 °F 76% 30.23 in 10.0 mi WSW 11.5 mph - N/A   Clear
8:15 PM 5.2 °F -10.6 °F -1.1 °F 75% 30.23 in 10.0 mi WSW 11.5 mph - N/A   Clear
8:35 PM 5.0 °F -9.1 °F -1.3 °F 75% 30.24 in 10.0 mi WSW 9.2 mph - N/A   Clear
8:55 PM 4.8 °F -11.8 °F -1.8 °F 74% 30.25 in 10.0 mi WSW 12.7 mph - N/A   Clear
9:15 PM 4.5 °F -10.7 °F -2.2 °F 74% 30.25 in 10.0 mi WSW 10.4 mph - N/A   Clear
9:35 PM 4.3 °F -10.0 °F -2.2 °F 75% 30.24 in 10.0 mi WSW 9.2 mph - N/A   Clear
9:55 PM 4.1 °F -11.1 °F -2.2 °F 75% 30.25 in 10.0 mi WSW 10.4 mph - N/A   Clear
10:15 PM 3.7 °F -13.2 °F -2.4 °F 76% 30.25 in 10.0 mi West 12.7 mph 16.1 mph N/A   Clear
10:35 PM 3.4 °F -10.0 °F -2.7 °F 76% 30.26 in 10.0 mi West 8.1 mph - N/A   Clear
10:55 PM 3.2 °F -9.1 °F -3.1 °F 75% 30.26 in 10.0 mi West 6.9 mph - N/A   Clear
11:15 PM 2.8 °F -11.7 °F -3.6 °F 74% 30.27 in 10.0 mi WSW 9.2 mph - N/A   Clear
11:35 PM 2.7 °F -12.9 °F -4.0 °F 74% 30.28 in 10.0 mi WSW 10.4 mph - N/A   Clear
11:55 PM 2.3 °F -13.4 °F -4.4 °F 74% 30.30 in 10.0 mi West 10.4 mph - N/A   Clear